AFR5261 LEMH-LFPO

Flight info

Callsign AFR5261
Flight time N/A
Altitude 34000
Route MEROS DCT LAPIT DCT CHELY DCT LUMAS DCT SOFFY DCT MRM DCT MTL DCT ETREK DCT MADOT DCT MOPEM DCT PIBAT
Aircraft A20N/M-SDE2E3FGHIRWXY/LB1

Departure

Time 2026-05-05 09:38
Airport Menorca Airport (LEMH)

Arrival

Time N/A
Airport Paris-Orly Airport (LFPO)
Time Latitude Longitude Altitude Speed Heading
2026-05-05 09:26 39.86566 4.22354 296 ft 0 kts 20°
2026-05-05 09:30 39.86570 4.22356 288 ft 1 kts 18°
2026-05-05 09:30 39.86574 4.22357 288 ft 0 kts 14°
2026-05-05 09:30 39.86595 4.22363 292 ft 5 kts
2026-05-05 09:30 39.86631 4.22369 289 ft 4 kts
2026-05-05 09:31 39.86655 4.22372 290 ft 3 kts
2026-05-05 09:31 39.86668 4.22374 290 ft 2 kts
2026-05-05 09:31 39.86732 4.22382 291 ft 9 kts
2026-05-05 09:31 39.86775 4.22386 294 ft 4 kts
2026-05-05 09:32 39.86800 4.22389 292 ft 6 kts
2026-05-05 09:32 39.86833 4.22394 293 ft 8 kts
2026-05-05 09:32 39.86865 4.22399 294 ft 1 kts
2026-05-05 09:32 39.86888 4.22395 295 ft 5 kts 350°
2026-05-05 09:33 39.86917 4.22343 297 ft 0 kts 287°
2026-05-05 09:34 39.86918 4.22337 300 ft 3 kts 286°
2026-05-05 09:34 39.86938 4.22276 300 ft 10 kts 310°
2026-05-05 09:34 39.87021 4.22256 302 ft 15 kts
2026-05-05 09:34 39.87138 4.22285 306 ft 18 kts
2026-05-05 09:35 39.87261 4.22303 309 ft 17 kts
2026-05-05 09:35 39.87380 4.22283 313 ft 5 kts 295°
2026-05-05 09:35 39.87393 4.22207 311 ft 12 kts 273°
2026-05-05 09:36 39.87323 4.22090 310 ft 13 kts 195°
2026-05-05 09:36 39.87269 4.22075 307 ft 11 kts 192°
2026-05-05 09:36 39.87203 4.22057 307 ft 8 kts 192°
2026-05-05 09:36 39.87162 4.22048 307 ft 0 kts 184°
2026-05-05 09:37 39.87150 4.22047 305 ft 10 kts 185°
2026-05-05 09:37 39.86775 4.21973 305 ft 109 kts 189°
2026-05-05 09:37 39.85714 4.21747 689 ft 181 kts 190°
2026-05-05 09:38 39.84336 4.21437 1616 ft 232 kts 191°
2026-05-05 09:38 39.82633 4.21070 3139 ft 252 kts 191°
2026-05-05 09:38 39.80953 4.20715 5491 ft 237 kts 191°
2026-05-05 09:38 39.79348 4.20397 7359 ft 231 kts 191°
2026-05-05 09:39 39.77655 4.20066 8099 ft 255 kts 189°
2026-05-05 09:39 39.75927 4.20355 8512 ft 258 kts 155°
2026-05-05 09:39 39.74639 4.22037 8845 ft 274 kts 120°
2026-05-05 09:39 39.74321 4.24490 9019 ft 284 kts 81°
2026-05-05 09:40 39.75086 4.26855 9687 ft 292 kts 58°
2026-05-05 09:40 39.76259 4.29025 10199 ft 294 kts 53°
2026-05-05 09:40 39.77587 4.31019 10678 ft 298 kts 45°
2026-05-05 09:40 39.79153 4.32861 11162 ft 301 kts 38°
2026-05-05 09:41 39.80949 4.34410 11665 ft 333 kts 24°
2026-05-05 09:41 39.83214 4.35529 12195 ft 358 kts 13°
2026-05-05 09:41 39.85636 4.36134 12697 ft 352 kts 359°
2026-05-05 09:41 39.88078 4.35893 13212 ft 352 kts 346°
2026-05-05 09:42 39.90448 4.35130 13689 ft 349 kts 335°
2026-05-05 09:42 39.92610 4.33744 14139 ft 344 kts 323°
2026-05-05 09:42 39.94650 4.32091 14588 ft 349 kts 328°
2026-05-05 09:42 39.96913 4.30887 15046 ft 355 kts 336°
2026-05-05 09:43 39.99304 4.29976 15498 ft 359 kts 341°
2026-05-05 09:43 40.01750 4.29263 15984 ft 363 kts 343°
2026-05-05 09:43 40.04254 4.28694 16463 ft 366 kts 346°
2026-05-05 09:43 40.06759 4.28242 16931 ft 370 kts 347°
2026-05-05 09:44 40.09357 4.27866 17445 ft 373 kts 349°
2026-05-05 09:44 40.11857 4.27730 17926 ft 380 kts 356°
2026-05-05 09:44 40.14514 4.28003 18409 ft 386 kts
2026-05-05 09:44 40.17190 4.28454 18850 ft 390 kts
2026-05-05 09:45 40.19885 4.29003 19298 ft 393 kts
2026-05-05 09:45 40.22597 4.29611 19747 ft 397 kts
2026-05-05 09:45 40.25330 4.30262 20210 ft 402 kts
2026-05-05 09:45 40.28082 4.30942 20676 ft 405 kts
2026-05-05 09:46 40.30872 4.31648 21154 ft 408 kts
2026-05-05 09:46 40.33671 4.32370 21641 ft 412 kts
2026-05-05 09:46 40.36498 4.33104 22135 ft 416 kts
2026-05-05 09:46 40.39225 4.33818 22616 ft 420 kts
2026-05-05 09:47 40.42111 4.34576 23129 ft 424 kts
2026-05-05 09:47 40.45015 4.35341 23635 ft 428 kts
2026-05-05 09:47 40.47938 4.36169 24069 ft 433 kts
2026-05-05 09:47 40.50882 4.37116 24512 ft 437 kts
2026-05-05 09:48 40.53803 4.38108 24956 ft 440 kts
2026-05-05 09:48 40.56812 4.39158 25421 ft 444 kts
2026-05-05 09:48 40.58045 4.39592 25611 ft 445 kts
2026-05-05 09:48 40.61019 4.40445 26072 ft 446 kts
2026-05-05 09:49 40.64035 4.41117 26536 ft 448 kts
2026-05-05 09:49 40.67193 4.41745 27027 ft 450 kts
2026-05-05 09:49 40.70262 4.42331 27515 ft 453 kts
2026-05-05 09:49 40.73434 4.42929 28023 ft 457 kts
2026-05-05 09:50 40.76591 4.43529 28525 ft 461 kts
2026-05-05 09:50 40.79786 4.44147 29058 ft 465 kts
2026-05-05 09:50 40.82986 4.44781 29583 ft 469 kts
2026-05-05 09:50 40.86234 4.45440 30113 ft 472 kts
2026-05-05 09:51 40.89037 4.46024 30502 ft 476 kts
2026-05-05 09:51 40.92325 4.46757 30762 ft 484 kts
2026-05-05 09:51 40.95653 4.47543 30876 ft 485 kts
2026-05-05 09:51 40.98743 4.48301 30923 ft 483 kts
2026-05-05 09:52 41.05324 4.49950 30958 ft 481 kts
2026-05-05 09:52 41.11912 4.51573 30965 ft 481 kts
2026-05-05 09:53 41.15140 4.52366 31370 ft 477 kts
2026-05-05 09:53 41.18432 4.53167 31771 ft 486 kts
2026-05-05 09:53 41.21796 4.53979 32194 ft 493 kts
2026-05-05 09:53 41.25210 4.54804 32620 ft 501 kts
2026-05-05 09:54 41.28660 4.55639 33048 ft 507 kts
2026-05-05 09:54 41.32165 4.56490 33489 ft 513 kts
2026-05-05 09:54 41.35666 4.57342 33781 ft 522 kts
2026-05-05 09:54 41.39251 4.58213 33899 ft 524 kts
2026-05-05 09:55 41.42733 4.59087 33933 ft 497 kts
2026-05-05 09:55 41.46083 4.59932 33952 ft 494 kts
2026-05-05 09:55 41.52644 4.61552 33966 ft 501 kts
2026-05-05 09:56 41.59499 4.63238 33969 ft 499 kts
2026-05-05 09:56 41.65523 4.64725 33973 ft 499 kts
2026-05-05 09:57 41.71569 4.66311 33976 ft 503 kts
2026-05-05 09:57 41.78349 4.68685 33966 ft 503 kts
2026-05-05 09:58 41.84483 4.71018 33972 ft 503 kts 10°
2026-05-05 09:58 41.91226 4.73642 33966 ft 504 kts 10°
2026-05-05 09:59 41.97634 4.76158 33973 ft 503 kts 11°
2026-05-05 09:59 42.04227 4.78758 33972 ft 503 kts 11°
2026-05-05 10:00 42.10961 4.81418 33969 ft 503 kts 11°
2026-05-05 10:00 42.17086 4.83843 33964 ft 501 kts 11°
2026-05-05 10:01 42.23772 4.86496 33965 ft 501 kts 11°
2026-05-05 10:01 42.30400 4.89134 33966 ft 494 kts 11°
2026-05-05 10:02 42.36662 4.91637 33965 ft 494 kts 11°
2026-05-05 10:02 42.43292 4.94285 33963 ft 496 kts 11°
2026-05-05 10:03 42.49731 4.96863 33965 ft 495 kts 11°
2026-05-05 10:03 42.56341 4.99516 33969 ft 496 kts 12°
2026-05-05 10:04 42.62958 5.02176 33963 ft 496 kts 12°
2026-05-05 10:04 42.69390 5.04770 33963 ft 496 kts 12°
2026-05-05 10:05 42.76019 5.07449 33964 ft 497 kts 12°
2026-05-05 10:05 42.82632 5.10130 33961 ft 498 kts 12°
2026-05-05 10:06 42.89227 5.12810 33958 ft 498 kts 12°
2026-05-05 10:06 42.95866 5.15517 33957 ft 499 kts 12°